Tracking 21476 objects as of 30-Sep-2020
HD Live streaming from Space Station
objects crossing your sky now

IRIDIUM 33 DEB

Track IRIDIUM 33 DEB now!
10-day predictions


NORAD ID: 36563
Int'l Code: 1997-051WS
Perigee: 613.9 km
Apogee: 672.2 km
Inclination: 86.4 °
Period: 97.4 minutes
Semi major axis: 7014 km
RCS: 0.003 m2 (small)
Launch date: September 14, 1997
Source: United States (US)
Launch site: TYURATAM MISSILE AND SPACE COMPLEX (TTMTR)

Note: This is SATELLITE DEBRIS
aabbcc
Your satellite tracking list
Your tracking list is empty




NASA's NSSDC Master Catalog

Two Line Element Set (TLE):
1 36563U 97051WS  20273.16530601 +.00006299 +00000-0 +85898-3 0  9998
2 36563 086.3528 074.8907 0041566 314.0585 045.7214 14.77916910590989
Source of the keplerian elements: AFSPC